Home   Weather   Auxerre   Past weeks

Flag for France Past Weather in Auxerre, Burgundy, France — Yesterday and Last 2 Weeks

43 °F


Feels Like: 43 °F
Forecast: 41 / 61 °F
Wind: No wind

Location: Troyes Airport

Current Time: Oct 28, 2016 at 4:55:14 AM

Latest Report: Oct 28, 2016 at 4:00 AM

Visibility: 0 mi

Pressure: 30.54 "Hg

Humidity: 100%

Dew Point: 43 °F

Location of AuxerreLocation

Past Weather in Auxerre — Graph


Auxerre Temperature Yesterday

Maximum temperature yesterday: 55 °F (at 2:00 PM)
Minimum temperature yesterday: 41 °F (at 10:00 PM)
Average temperature yesterday: 49 °F

High & Low Weather Summary for the Past Weeks

High70 °F (Oct 16, 3:00 PM)100% (Oct 14, 8:00 AM)30.60 "Hg (Oct 14, 8:00 AM)
Low30 °F (Oct 23, 7:00 AM)56% (Oct 15, 4:00 PM)29.59 "Hg (Oct 14, 3:30 PM)
Average51 °F89%30.05 "Hg
* Reported Oct 13 3:00 AM — Oct 28 3:30 AM, Auxerre, Weather by CustomWeather, © 2016

Note: Actual official high and low records may vary slightly from our data, if they occured in-between our weather recording intervals... More about our weather records


Auxerre Weather History for the Previous 24 Hours

Scroll right to see more
Time TempWeatherWind HumidityBarometerVisibility
3:30 AM
Fri, Oct 28
43 °FFog.No wind100%30.54 "Hg0 mi
3:00 AM43 °FFog.1 mph100%30.54 "Hg0 mi
2:30 AM41 °FFog.No wind100%30.54 "Hg0 mi
2:00 AM41 °FFog.3 mph100%30.57 "Hg0 mi
1:30 AM41 °FFog.3 mph100%30.57 "Hg0 mi
1:00 AM43 °FFog.1 mph100%30.57 "Hg0 mi
12:30 AM41 °FFog.No wind100%30.57 "Hg0 mi
12:00 AM41 °FFog.No wind100%30.54 "Hg0 mi
11:30 PM
Thu, Oct 27
41 °FFog.2 mph100%30.57 "Hg0 mi
11:00 PM41 °FFog.2 mph100%30.54 "Hg0 mi
10:30 PM41 °FClear.No wind93%30.54 "HgN/A
10:00 PM41 °FClear.1 mph100%30.54 "HgN/A
9:30 PM43 °FClear.2 mph93%30.54 "Hg4 mi
9:00 PM45 °FFog.No wind93%30.54 "Hg1 mi
8:30 PM45 °FFog.1 mph100%30.57 "Hg2 mi
8:00 PM45 °FClear.2 mph93%30.57 "HgN/A
7:30 PM46 °FClear.No wind93%30.57 "Hg4 mi
7:00 PM52 °FClear.3 mph88%30.54 "Hg5 mi
6:30 PM54 °FSunny.3 mph82%30.54 "Hg10 mi
6:00 PM54 °FFog.3 mph82%30.54 "Hg2 mi
5:30 PM55 °FSunny.2 mph77%30.54 "Hg10 mi
5:00 PM55 °FPassing clouds.3 mph82%30.54 "HgN/A
4:30 PM55 °FSunny.5 mph77%30.54 "Hg10 mi
4:00 PM55 °FPassing clouds.5 mph82%30.54 "HgN/A
3:30 PM55 °FPartly sunny.5 mph82%30.54 "HgN/A
3:00 PM55 °FPartly sunny.5 mph77%30.54 "HgN/A
2:30 PM54 °FScattered clouds.3 mph82%30.57 "HgN/A
2:00 PM55 °FPartly sunny.5 mph77%30.57 "HgN/A
1:30 PM52 °FScattered clouds.3 mph88%30.57 "Hg5 mi
1:00 PM52 °FPartly sunny.2 mph82%30.57 "Hg6 mi
12:30 PM50 °FLow clouds.2 mph88%30.60 "Hg6 mi
12:00 PM48 °FLow clouds.1 mph94%30.60 "Hg4 mi
11:30 AM48 °FLow clouds.2 mph94%30.57 "Hg4 mi
11:00 AM48 °FLow clouds.2 mph94%30.57 "Hg4 mi
10:30 AM48 °FFog.2 mph94%30.57 "Hg3 mi
10:00 AM48 °FFog.3 mph94%30.57 "Hg3 mi
9:30 AM48 °FLow clouds.5 mph94%30.57 "Hg4 mi
9:00 AM48 °FLow clouds.5 mph94%30.54 "Hg4 mi
8:30 AM48 °FLow clouds.5 mph94%30.54 "Hg5 mi
8:00 AM48 °FLow clouds.3 mph94%30.54 "Hg6 mi
7:30 AM48 °FLow clouds.3 mph94%30.54 "Hg5 mi
7:00 AM48 °FLow clouds.2 mph100%30.51 "HgN/A
6:30 AM48 °FLow clouds.2 mph100%30.51 "HgN/A
6:00 AM48 °FLow clouds.No wind94%30.51 "HgN/A
5:30 AM48 °FLow clouds.3 mph100%30.51 "Hg5 mi
5:00 AM48 °FLow clouds.2 mph100%30.51 "Hg6 mi
4:30 AM50 °FLow clouds.2 mph100%30.48 "Hg4 mi
4:00 AM50 °FLow clouds.2 mph100%30.48 "Hg4 mi
Weather by CustomWeather, © 2016

See weather overviewHow to use our weather pages